Simultaneous Nadir Overpasses (SNOs) Predictions

Prediction of SNOs between LANDSAT-8 and NOAA-19 Satellite Orbit:

Table of predicted SNOs for the next 14.0 days since TLE Epoch: 1/17/2020
Index Date (LANDSAT-8) Time (LANDSAT-8) Lat,Lon (LANDSAT-8) SZA (LANDSAT-8 ) Date (NOAA-19) Time (NOAA-19) Lat,Lon (NOAA-19) SZA (NOAA-19 ) Distance(km) Time Diff (sec)
1 01/19/2020 22:10:03 79.45,-129.07 100.33 01/19/2020 22:08:52 79.55,-130.41 100.34 29.66 71
2 01/19/2020 22:59:31 -79.41, 38.35 79.72 01/19/2020 22:59:43 -79.41, 38.21 79.73 2.79 12
3 01/22/2020 04:33:14 79.40, 134.86 99.77 01/22/2020 04:33:08 79.42, 134.94 99.79 2.09 6
4 01/24/2020 10:06:57 -79.45,-128.29 80.70 01/24/2020 10:06:25 -79.42,-128.37 80.73 3.05 32
5 01/24/2020 10:56:24 79.40, 39.03 99.23 01/24/2020 10:57:28 79.40, 39.13 99.25 2.05 64
6 01/26/2020 15:40:40 79.43, -31.84 98.73 01/26/2020 15:39:49 79.43, -31.67 98.72 3.50 51
7 01/26/2020 16:30:08 -79.40, 135.62 81.32 01/26/2020 16:30:46 -79.42, 135.66 81.29 1.99 38
8 01/28/2020 21:14:24 -79.43, 64.75 81.86 01/28/2020 21:13:11 -79.55, 63.87 81.81 22.21 73
9 01/28/2020 22:03:50 79.42,-127.69 98.12 01/28/2020 22:04:10 79.44,-127.80 98.14 3.18 20
10 01/31/2020 03:37:34 -79.42, -31.11 82.49 01/31/2020 03:37:28 -79.44, -30.99 82.47 2.90 6




NCC Satellite Simultaneous Nadir Overpasses (SNOs) Prediction Service
